{"data":{"norad_id":40966,"intl_designator":"2015-058C","name":"AEROCUBE 7","alt_names":[],"object_type":"PAYLOAD","status":"ACTIVE","operator":null,"country":"US","launch_date":"2015-10-08","launch_site_code":"AFWTR","launch_vehicle":null,"mission":null,"orbit_class":"UNKNOWN","rcs_meters":null,"size_class":null,"mass_kg":null,"dimensions":null,"purposes":["tech_demo"],"wikipedia_slug":null,"has_3d_model":false,"image_url":null,"decayed_at":null,"tle_current":{"epoch":"2026-09-19T13:18:48.628800Z","epoch_age_seconds":96074,"freshness":"FRESH","line1":"1 40966U 15058C   26262.55472950  .00001793  00000+0  14818-3 0  9993","line2":"2 40966  64.7609 309.0761 0127845  25.7955 334.9459 14.96322129380079","mean_motion":14.96322129,"eccentricity":0.0127845,"inclination_deg":64.7609,"raan_deg":309.0761,"arg_perigee_deg":25.7955,"mean_anomaly_deg":334.9459,"bstar":0.00014818,"rev_number":38007,"period_min":96.235962303275,"perigee_km":489.33779763617,"apogee_km":667.20621957724,"semimajor_km":6956.4090086067,"source":"CELESTRAK","updated_at":"2026-09-20T09:00:48.028439Z"}}}